Dewpoint
21 21 21 21 20 21 20 19 19 19 19 19 18 19 18 19 20 20 19 19 19 19 19 19 19 19 20 19 19 18 18 19 18 20 20 20 19 22 21 21 22 22
22 23 23 22 22 22 20 20 20 20 20 20 20 19 20 19 20 20 20 19 18 19 19 19 19 19 19 18 19 17 16 16 16 21 19 19 18 19 18 20 20 21
21 22 21 20 20 21 21 21 21 20 20 21 21 20 20 20 19 19 19 18 17 17 18 18 18 18 18 18 18 16 16 16 15 17 17 16 16 16 16 18 18 20
20 21 21 21 21 21 21 21 21 20 20 20 20 21 20 20 19 17 17 18 15 14 16 16 16 16 17 17 17 14 15 14 15 17 15 14 14 15 14 16 16 16
18 19 19 20 21 21 21 21 20 20 20 20 21 20 19 18 17 15 14 13 13 13 13 13 13 14 15 14 14 13 12 11 13 14 11 11 12 11 13 13 12 12
17 19 18 19 19 19 18 19 20 19 19 18 20 20 18 17 15 15 15 14 13 13 12 12 12 13 13 13 12 11 10 10 10 10 9 8 9 10 12 12 12 10
14 14 15 15 15 15 15 17 19 20 18 18 17 17 17 16 15 15 14 14 12 13 12 12 12 12 12 12 11 10 10 10 9 9 8 8 9 9 9 9 10 10
14 14 14 14 14 14 15 15 16 17 17 15 15 16 16 15 14 14 14 13 11 11 11 11 12 12 12 11 11 10 9 9 9 8 8 8 8 9 9 10 10 11
14 13 13 13 14 14 14 14 15 16 17 15 15 15 15 15 14 14 12 12 11 10 10 10 10 11 11 10 10 9 8 8 8 8 8 8 9 9 10 11 11 12
13 13 13 13 13 14 14 14 15 15 16 15 15 14 13 13 13 12 9 10 9 9 9 10 10 9 9 9 8 8 7 7 7 7 8 9 10 11 11 12 12 12
13 13 13 14 14 14 14 14 14 14 15 14 13 12 13 11 9 9 8 8 8 8 8 8 8 7 7 7 7 7 6 6 7 9 10 11 12 12 15 13 13 12
13 13 14 14 14 14 14 14 14 14 14 14 12 9 9 9 7 6 8 7 6 7 7 7 6 5 5 5 5 5 6 8 10 11 12 13 13 13 12 12 12 12
13 13 14 14 15 14 14 14 14 14 13 10 12 7 6 5 6 6 6 6 5 6 5 4 4 4 4 4 3 5 8 11 13 13 13 13 12 12 12 12 12 12
14 14 14 15 15 14 14 14 14 12 10 9 9 6 5 5 5 5 5 5 5 4 3 3 3 2 2 2 3 8 12 14 14 14 13 13 12 12 12 12 12 11
14 15 15 15 15 15 14 13 11 9 8 6 5 5 5 5 5 4 4 3 3 3 2 2 2 2 1 3 9 14 14 15 14 14 13 13 12 12 12 11 11 10
15 15 15 14 14 13 12 10 8 6 5 4 5 4 4 4 4 4 3 2 2 1 1 1 1 1 5 14 18 17 16 16 16 16 15 14 14 12 11 11 10 10
15 15 14 14 13 11 10 7 5 6 7 6 4 3 4 3 3 2 1 1 1 0 0 0 0 0 11 16 19 20 18 17 17 17 16 15 14 12 11 10 9 8
15 14 13 12 9 9 8 7 6 6 5 5 4 3 3 3 1 0 0 0 -0 -0 -1 -1 -1 6 13 16 19 20 21 18 18 17 16 14 13 12 11 9 8 7
14 14 12 10 7 5 5 5 4 4 3 3 2 3 3 1 -0 0 -0 -0 -1 -1 -1 -1 -1 7 13 16 19 20 21 20 18 17 16 15 13 11 10 7 6 5
13 12 9 7 4 4 4 3 2 2 2 2 2 2 2 1 0 0 -0 -2 -2 -2 -2 -2 -2 5 14 17 19 19 20 20 18 17 15 12 10 8 7 6 5 5
11 8 7 5 4 3 2 2 1 1 1 2 1 1 1 1 0 -1 -1 -1 -1 -1 -2 -2 -3 9 15 17 18 19 20 20 17 14 12 10 8 7 7 6 6 6
8 6 5 3 3 1 1 2 1 1 -0 0 -0 1 1 0 -0 -1 -1 -1 -1 -1 -2 -2 -3 9 13 15 17 19 20 16 14 12 11 11 10 8 7 6 6 6
6 4 3 2 1 1 -1 -0 1 -1 -1 -1 -2 -0 0 -1 -2 -2 -2 -2 -2 -2 -3 -3 -2 4 12 15 17 18 17 13 13 12 11 10 8 8 8 7 7 6
4 3 2 1 -0 -1 -1 1 -1 -2 -2 -1 -2 -2 -1 -3 -3 -3 -3 -3 -3 -3 -3 -3 -1 3 11 14 16 17 17 14 12 11 11 11 11 10 9 8 8 12
2 1 1 -1 -2 0 -2 -1 -3 -3 -2 -2 -3 -3 -3 -4 -3 -4 -4 -4 -4 -4 1 -0 -1 1 8 12 14 16 15 13 13 12 11 11 10 9 9 9 8 11
0 -0 -1 -2 -1 -3 -3 -3 -3 -4 -4 -3 -4 -5 -5 -5 -5 -5 -5 -6 -5 -4 -4 -4 -4 -4 -1 11 14 16 17 14 13 12 10 10 10 10 10 11 11 11